TimeMST,TemperatureF,Dew PointF,Humidity,Sea Level PressureIn,VisibilityMPH,Wind Direction,Wind SpeedMPH,Gust SpeedMPH,PrecipitationIn,Events,Conditions,WindDirDegrees,DateUTC
12:53 AM,19.9,14.0,78,29.99,10.0,SW,12.7,-,N/A,,Scattered Clouds,220,2013-01-24 07:53:00
1:53 AM,26.1,15.1,63,29.95,10.0,WSW,16.1,-,N/A,,Partly Cloudy,240,2013-01-24 08:53:00
2:53 AM,39.0,15.1,38,29.92,10.0,WSW,17.3,-,N/A,,Partly Cloudy,250,2013-01-24 09:53:00
3:53 AM,36.0,15.1,43,29.93,10.0,WSW,9.2,-,N/A,,Partly Cloudy,250,2013-01-24 10:53:00
4:53 AM,35.1,14.0,42,29.93,10.0,SW,4.6,-,N/A,,Partly Cloudy,220,2013-01-24 11:53:00
5:53 AM,30.0,15.1,54,29.94,10.0,SSW,10.4,-,N/A,,Partly Cloudy,210,2013-01-24 12:53:00
6:53 AM,36.0,15.1,43,29.95,10.0,WSW,12.7,-,N/A,,Partly Cloudy,240,2013-01-24 13:53:00
7:53 AM,37.0,15.1,41,29.96,10.0,SW,12.7,-,N/A,,Scattered Clouds,220,2013-01-24 14:53:00
8:53 AM,37.9,17.1,43,29.96,10.0,SW,9.2,-,N/A,,Mostly Cloudy,220,2013-01-24 15:53:00
9:53 AM,50.0,24.1,36,29.95,10.0,WNW,13.8,-,N/A,,Mostly Cloudy,300,2013-01-24 16:53:00
10:53 AM,50.0,25.0,38,29.96,10.0,WSW,9.2,-,N/A,,Mostly Cloudy,240,2013-01-24 17:53:00
11:53 AM,52.0,24.1,34,29.98,10.0,NW,12.7,-,N/A,,Mostly Cloudy,320,2013-01-24 18:53:00
12:53 PM,52.0,25.0,35,29.99,10.0,NNW,19.6,33.4,N/A,,Scattered Clouds,340,2013-01-24 19:53:00
1:53 PM,53.1,25.0,34,29.97,10.0,NNW,19.6,28.8,N/A,,Partly Cloudy,330,2013-01-24 20:53:00
2:53 PM,52.0,24.1,34,29.96,10.0,NNW,19.6,26.5,N/A,,Partly Cloudy,340,2013-01-24 21:53:00
3:53 PM,50.0,23.0,35,30.00,10.0,NNW,20.7,-,N/A,,Partly Cloudy,330,2013-01-24 22:53:00
4:53 PM,45.0,23.0,42,30.04,10.0,North,15.0,-,N/A,,Partly Cloudy,350,2013-01-24 23:53:00
5:53 PM,42.1,21.0,43,30.08,10.0,NNW,18.4,-,N/A,,Clear,330,2013-01-25 00:53:00
6:53 PM,37.9,19.9,48,30.12,10.0,NNW,5.8,-,N/A,,Clear,330,2013-01-25 01:53:00
7:53 PM,36.0,19.9,52,30.12,10.0,NNW,10.4,-,N/A,,Clear,330,2013-01-25 02:53:00
8:53 PM,32.0,19.0,59,30.14,10.0,NW,8.1,-,N/A,,Clear,320,2013-01-25 03:53:00
9:53 PM,37.9,21.9,53,30.11,10.0,SE,11.5,-,N/A,,Clear,140,2013-01-25 04:53:00
10:53 PM,36.0,21.9,57,30.12,10.0,South,8.1,-,N/A,,Clear,170,2013-01-25 05:53:00
11:53 PM,32.0,21.0,64,30.12,10.0,South,6.9,-,N/A,,Clear,180,2013-01-25 06:53:00